Location: Mountain Grove
(34.0887°N, 86.6172°W)
Time: 22:04:59
(UTC+00:00)

SPOT 3 Rocket - Pass Details

Date: 14 July 2020
Orbit: 779 x 795 km, 98.8° (Epoch: 08 August)

Event Time Altitude Azimuth Distance (km) Brightness Sun altitude
Exits shadow 01:51:51 - 152° (SSE) 2,405 5.5 -10.2°
Reaches altitude 10° 01:51:59 10° 152° (SSE) 2,351 5.5 -10.2°
Maximum altitude 01:57:05 60° 74° (ENE) 909 3.7 -11.1°
Drops below altitude 10° 02:02:13 10° 355° (N) 2,369 6.6 -11.9°
Sets 02:04:35 0° 352° (N) 3,302 7.5 -12.3°
